P/2004 VR8 ( LONEOS )

Japanese version
Home page
Updated on September 3, 2006

---------------------------------------------------------------------

* Profile

Discovery Date November 3, 2004
Magnitude 17.6 mag
Discoverer Lowell Observatory Near-Earth Object Search

* Pictures

* Orbital Elements

The following orbital elements are taken from MPC 56169:

Epoch 2005 Aug. 18.0 TT = JDT 2453600.5
T 2005 Sept. 2.5151 TT                                  MPC
q   2.375707             (2000.0)            P               Q
n   0.0923636      Peri.   63.1006      -0.6471152      -0.6893563
a   4.846953       Node    71.2162      +0.5183650      -0.7110273
e   0.509856       Incl.   20.1171      +0.5590525      -0.1386655
P  10.7
From 443 observations 2004 Nov. 3-2006 Mar. 11, mean residual 0".7.

* Finding Charts

* Magnitudes Graph

        m1 = 3.2 + 5 log d + 25.0 log r

---------------------------------------------------------------------

The orbital elements are published at the MPC Ephemerides and Orbital Elements.
The charts are made with StellaNavigator Ver.2.0 for Windows (AstroArts / ASCII).
The magnitudes graphs are made with Comet for Windows.

---------------------------------------------------------------------

Copyright(C) Seiichi Yoshida (comet@aerith.net). All rights reserved.